Location: Ferchesar
(52.6477°N, 12.4298°E)
Time: 04:53:27
(UTC+01:00)

Vanguard 1 Rocket - Pass Details

Date: 16 December 2021
Orbit: 651 x 4224 km, 34.3° (Epoch: 15 January)

Event Time Altitude Azimuth Distance (km) Brightness Sun altitude
Exits shadow 02:50:10 22° 152° (SSE) 3,797 10.4 -47.3°
Drops below altitude 10° 02:57:13 10° 131° (SE) 5,539 11.5 -46.3°
Sets 03:03:40 0° 121° (ESE) 7,196 12.3 -45.4°
